Regional Weather Roundup
Issued by NWS

Home | Current Version | Previous Version | Graphics & Text | Print | Product List | Glossary On
Versions: 1 2 3 4 5 6 7 8 9 10 11 12 13 14 15 16 17 18 19 20 21 22 23 24 25 26 27 28 29 30 31 32 33 34 35 36 37 38 39 40 41 42 43 44 45 46 47 48 49 50
677
ASUS43 KOAX 261302
RWRNE

WEATHER ROUNDUP FOR NEBRASKA
NATIONAL WEATHER SERVICE OMAHA NE
800 AM CDT MON SEP 26 2016

NOTES: SATELLITE DATA IS BEING USED TO AUGMENT CLOUD COVER ABOVE
       12000 FEET.
       "FAIR" INDICATES FEW OR NO CLOUDS BELOW 12,000 FEET WITH NO
       SIGNIFICANT WEATHER AND/OR OBSTRUCTIONS TO VISIBILITY.

  * THESE STATIONS DO NOT REPORT WEATHER SUCH AS RAIN...SNOW OR FOG.

NEZ001>004-019>022-054>056-261400-
NEBRASKA PANHANDLE

CITY           SKY/WX    TMP DP  RH WIND       PRES   REMARKS
SCOTTSBLUFF    CLEAR     37  34  89 W5        30.37R WCI  33
ALLIANCE       CLOUDY    31  28  89 W6        30.33S WCI  25
CHADRON        CLEAR     40  35  83 W5        30.32R
SIDNEY         CLEAR     40  34  79 W12       30.38R WCI  33
$$

NEZ057>060-069>072-079>082-261400-
SOUTHWEST NEBRASKA

CITY           SKY/WX    TMP DP  RH WIND       PRES   REMARKS
NORTH PLATTE   CLOUDY    36  30  79 CALM      30.35S
IMPERIAL       CLEAR     40  34  79 W3        30.37S
LEXINGTON      CLEAR     36  32  85 W3        30.34S
MCCOOK         CLEAR     37  34  89 SW7       30.37R WCI  32
OGALLALA       CLOUDY    35  33  92 CALM      30.36S
$$

NEZ005>010-023>029-035>040-094-261400-
NORTH CENTRAL NEBRASKA

CITY           SKY/WX    TMP DP  RH WIND       PRES   REMARKS
VALENTINE      CLEAR     37  31  78 SW3       30.28F
AINSWORTH      CLEAR     43  35  73 W9        30.29R
BROKEN BOW     CLEAR     39  32  76 CALM      30.31S
O`NEILL        MOCLDY    47  34  59 W10       30.26S
ORD            CLEAR     36  32  85 CALM      30.29S
THEDFORD       CLEAR     40  33  76 CALM      30.32S
$$

NEZ041-046>049-061>064-073>077-083>087-261400-
SOUTH CENTRAL NEBRASKA

CITY           SKY/WX    TMP DP  RH WIND       PRES   REMARKS
GRAND ISLAND   CLEAR     44  35  70 W8        30.31S
AURORA         CLEAR     42  38  86 W5        30.30S
HASTINGS       CLEAR     43  34  70 W5        30.32S
HEBRON         CLEAR     43  37  82 W5        30.31S
HOLDREGE       CLEAR     41  33  74 W3        30.34R
KEARNEY *      CLEAR     39  30  70 CALM      30.32S
YORK           CLEAR     43  39  87 W8        30.29S
$$

NEZ011>018-030>034-042>045-261400-
NORTHEAST NEBRASKA

CITY           SKY/WX    TMP DP  RH WIND       PRES   REMARKS
NORFOLK        CLEAR     41  36  82 W6        30.25R
ALBION         CLEAR     44  35  69 CALM      30.27S
BLAIR          PTCLDY    48  39  71 W8        30.23S
FREMONT        CLEAR     43  40  88 NW5       30.25R
TEKAMAH        CLEAR     48  37  65 W7        30.22S
WAYNE          CLEAR     45  38  76 W5        30.24R
$$

NEZ050>053-065>068-078-088>093-261400-
SOUTHEAST NEBRASKA

CITY           SKY/WX    TMP DP  RH WIND       PRES   REMARKS
LINCOLN        CLEAR     48  38  68 NW5       30.28S
OMAHA EPPLEY   PTCLDY    50  39  66 W5        30.24S
BEATRICE       CLEAR     43  40  88 CALM      30.29R
FALLS CITY     CLEAR     47  42  83 W6        30.25S
NEBRASKA CITY  CLEAR     49  31  50 W10       30.25S
PLATTSMOUTH    CLEAR     47  37  67 W6        30.24S
$$

NEZ044-045-051>053-067-261400-
OMAHA AREA

CITY           SKY/WX    TMP DP  RH WIND       PRES   REMARKS
OMAHA EPPLEY   PTCLDY    50  39  66 W5        30.24S
BLAIR          PTCLDY    48  39  71 W8        30.23S
FREMONT        CLEAR     43  40  88 NW5       30.25R
MILLARD        PTCLDY    48  40  74 CALM      30.24S
OFFUTT AFB     PTCLDY    46  41  83 CALM      30.23S
PLATTSMOUTH    CLEAR     47  37  67 W6        30.24S
WAHOO          FAIR      48  39  69 W3        30.25S
$$




USA.gov is the U.S. government's official web portal to all federal, state and local government web resources and services.